Back to catalog

NOAA 16 DEB

AliveSSO
NORAD 41272·DEBRIS·🇺🇸 United States

Launched Sep 21, 2000 from Vandenberg Space Force Base

Loading…

Next Passes (next 24 hours)

TLE

FreshSource: Space-Track

Epoch: Sep 11, 2026, 03:51 UTC

1 41272U 00055FY  26254.16057781  .00002440  00000-0  10198-2 0  9991
2 41272  98.7384 322.5894 0026369 229.1609 130.7285 14.26870840552609

Track NOAA 16 DEB in real time with AllMySat

Download on the App Store